Date,TemperatureHighF,TemperatureAvgF,TemperatureLowF,DewpointHighF,DewpointAvgF,DewpointLowF,HumidityHigh,HumidityAvg,HumidityLow,PressureMaxIn,PressureMinIn,WindSpeedMaxMPH,WindSpeedAvgMPH,GustSpeedMaxMPH,PrecipitationSumIn
2014-1-1,34.0,25.7,16.5,20.6,9.4,1.1,82,51,34,30.00,29.73,17,2,17,0.00
2014-1-2,46.8,31.8,18.9,11.1,2.9,-5.6,44,29,19,30.00,29.85,17,3,22,0.00
2014-1-3,51.3,39.3,25.9,13.0,7.6,2.5,42,27,21,29.85,29.58,27,5,27,0.00
2014-1-4,35.4,12.3,-4.9,16.5,-0.4,-16.9,80,57,31,29.76,29.58,13,0,13,0.00
2014-1-5,9.7,2.7,-4.4,-3.4,-9.8,-16.4,55,55,55,29.91,29.73,17,0,17,0.00
2014-1-6,33.6,20.3,5.9,2.7,-1.9,-8.5,55,39,25,29.94,29.82,25,4,25,0.00
2014-1-7,46.4,34.2,26.4,14.2,4.9,-2.8,56,30,20,29.91,29.79,17,2,17,0.00
2014-1-8,42.1,27.6,17.6,11.7,8.0,3.5,67,45,26,29.85,29.76,14,1,14,0.00
2014-1-9,31.5,26.3,19.8,8.9,5.0,0.0,47,40,32,29.76,29.55,17,3,17,0.00
2014-1-10,31.1,22.7,16.0,9.7,0.6,-6.2,52,38,31,29.70,29.46,32,6,32,0.00
2014-1-11,52.7,35.8,25.3,18.4,11.3,6.4,52,37,24,29.82,29.58,29,5,29,0.00
2014-1-12,42.4,27.3,18.1,11.4,2.8,-5.8,51,35,26,29.76,29.49,24,4,24,0.00
2014-1-13,35.2,26.1,17.6,6.7,1.2,-5.4,37,34,30,29.82,29.70,37,9,37,0.00
2014-1-14,33.4,26.1,18.7,14.6,7.5,2.6,78,46,34,30.08,29.79,26,3,27,0.00
2014-1-15,41.7,32.6,27.9,10.8,6.0,2.5,40,32,26,30.00,29.88,26,5,26,0.00
2014-1-16,36.0,28.9,22.6,7.0,2.0,-0.5,40,31,27,30.03,29.91,23,3,23,0.00
2014-1-17,46.8,31.6,23.9,9.9,3.6,0.2,41,30,21,30.00,29.88,17,3,17,0.00
2014-1-18,56.3,31.0,20.5,11.5,3.1,-0.7,44,31,17,30.00,29.91,13,1,13,0.00
2014-1-19,55.8,40.4,31.3,12.1,4.8,0.6,30,23,18,29.97,29.85,23,4,23,0.00
2014-1-20,47.5,31.4,22.1,9.6,2.4,-5.2,36,29,20,30.11,29.88,18,1,21,0.00
2014-1-21,51.4,35.3,20.7,10.5,-0.7,-9.3,30,21,18,30.08,29.91,20,4,31,0.00
2014-1-22,43.9,25.1,16.3,10.0,0.6,-9.0,75,36,20,29.94,29.82,8,0,8,0.00
2014-1-23,37.2,12.1,-3.5,9.9,0.2,-11.1,75,60,27,30.08,29.91,5,0,5,0.00
2014-1-24,46.4,32.0,9.7,7.0,-0.5,-10.5,63,26,19,30.06,29.97,19,3,19,0.00
2014-1-25,57.2,39.8,30.2,15.7,7.5,-0.1,39,26,19,30.00,29.79,13,3,18,0.00
2014-1-26,46.2,30.0,10.2,17.3,6.9,1.3,81,41,22,29.82,29.70,28,3,28,0.00
2014-1-27,14.2,9.0,5.2,4.9,-2.0,-8.0,67,60,54,29.79,29.70,5,0,5,0.00
2014-1-28,31.8,13.1,-3.5,-0.3,-9.4,-15.9,54,38,23,29.88,29.79,19,2,19,0.00
2014-1-29,44.6,36.3,26.8,25.4,9.9,-2.0,66,34,28,29.73,29.44,30,7,30,0.00
2014-1-30,39.0,29.7,17.6,29.5,17.7,8.2,86,64,32,29.58,29.41,17,1,17,0.00
2014-1-31,34.2,19.2,7.0,14.5,9.4,0.2,82,67,40,29.55,29.46,6,0,6,0.00
2014-2-1,26.6,12.9,0.7,12.5,3.6,-9.6,86,67,42,29.73,29.55,7,0,10,0.00
2014-2-2,44.2,12.9,1.2,12.5,-2.8,-9.4,61,52,21,29.73,29.61,11,1,11,0.00
2014-2-3,34.9,17.1,5.4,5.7,0.0,-7.8,68,48,29,29.64,29.55,13,1,13,0.00
2014-2-4,14.9,2.9,-20.6,3.7,-10.2,-34.8,64,54,46,29.76,29.58,6,0,6,0.00
2014-2-5,-10.7,-19.9,-24.2,-31.7,-36.2,-38.2,46,42,34,29.76,29.67,0,0,0,0.00
2014-2-6,35.4,11.6,-10.5,7.0,-10.4,-31.1,55,36,30,29.67,29.55,9,1,23,0.00
2014-2-7,42.1,24.0,10.2,14.1,6.3,-2.9,78,49,23,29.61,29.52,17,1,17,0.00
2014-2-8,41.2,29.9,17.2,18.4,9.9,2.5,66,44,30,29.73,29.58,24,3,24,0.00
2014-2-9,42.8,33.9,20.8,29.7,15.6,10.5,96,48,33,29.76,29.67,20,2,20,0.08
2014-2-10,39.9,28.4,14.5,19.5,13.6,8.6,81,55,39,29.82,29.70,11,0,16,0.08
2014-2-11,40.3,25.8,12.2,8.6,1.6,-4.2,69,36,21,29.85,29.70,0,0,0,0.00
2014-2-12,43.0,32.5,23.5,14.4,6.3,-1.5,41,33,22,29.85,29.61,26,2,27,0.00
2014-2-13,50.9,38.7,30.7,21.1,14.6,9.6,67,37,27,29.73,29.61,29,6,29,0.00
2014-2-14,49.6,36.1,25.3,20.4,10.3,0.1,45,34,19,29.82,29.67,27,4,27,0.00
2014-2-15,50.4,43.1,32.5,20.8,15.8,12.1,55,34,24,29.82,29.70,25,4,27,0.00
2014-2-16,52.5,34.7,25.2,29.1,14.0,4.4,85,45,21,29.88,29.64,18,1,18,0.00
2014-2-17,57.6,38.5,21.9,12.4,3.0,-7.4,46,23,17,29.88,29.61,28,5,28,0.00
2014-2-18,52.7,39.1,24.4,10.6,4.3,-0.8,42,24,19,29.79,29.61,27,5,27,0.00
2014-2-19,53.6,35.4,20.8,22.6,6.9,-0.8,70,32,18,29.73,29.41,20,2,23,0.00
2014-2-20,23.5,18.6,13.5,2.2,-6.3,-9.2,44,33,27,29.73,29.49,30,2,31,0.00
2014-2-21,40.5,28.1,21.0,13.9,2.2,-4.4,61,33,21,29.70,29.61,25,4,25,0.00
2014-2-22,36.3,27.9,21.9,19.9,9.4,2.9,78,47,31,29.73,29.58,17,2,17,0.00
2014-2-23,48.9,34.4,22.8,15.8,7.4,2.0,74,34,19,29.76,29.67,27,2,27,0.00
2014-2-24,55.8,36.1,15.1,15.1,7.2,0.8,82,36,17,29.85,29.64,26,2,26,0.00
2014-2-25,51.6,22.1,5.5,17.5,4.8,-6.4,90,50,24,29.91,29.67,19,1,19,0.00
2014-2-26,50.2,29.7,6.6,10.2,4.9,-5.4,57,37,19,29.85,29.70,17,2,17,0.04
2014-2-27,48.6,36.8,26.6,20.6,15.0,7.1,62,42,26,29.70,29.46,15,1,15,0.00
2014-2-28,50.9,34.8,22.8,21.8,12.6,6.1,90,43,21,29.58,29.46,13,2,24,0.00
2014-3-1,32.7,21.1,10.9,27.4,12.4,0.1,98,71,36,29.64,29.49,8,1,8,0.00
2014-3-2,38.3,23.3,16.0,29.4,15.7,9.9,92,75,32,29.82,29.61,5,0,8,0.12
2014-3-3,50.9,34.6,22.6,16.1,12.0,6.7,69,41,24,29.82,29.76,16,2,16,0.00
2014-3-4,55.4,37.4,27.1,26.0,12.2,4.9,89,40,18,29.82,29.67,15,1,15,0.00
2014-3-5,47.8,29.7,15.3,24.3,13.3,3.2,92,56,24,29.88,29.82,20,2,20,0.12
2014-3-6,55.2,39.0,30.2,17.0,9.2,2.8,55,31,18,29.85,29.67,17,4,24,0.08
2014-3-7,39.0,30.5,24.8,26.0,20.4,11.8,84,68,33,29.88,29.64,11,0,12,0.08
2014-3-8,50.7,29.3,17.8,23.0,17.8,12.5,89,68,27,30.03,29.88,0,0,0,0.24
2014-3-9,60.4,39.6,17.8,16.3,10.4,1.0,89,38,17,30.00,29.88,15,0,20,0.00
2014-3-10,54.1,39.8,27.5,15.4,8.5,1.5,49,29,18,29.91,29.58,24,2,24,0.00
2014-3-11,40.5,25.4,6.4,20.3,10.7,0.9,80,57,26,29.97,29.55,18,1,18,0.00
2014-3-12,50.9,22.6,2.3,29.4,6.8,-3.0,82,58,19,29.97,29.88,0,0,0,0.08
2014-3-13,53.2,38.1,17.6,10.8,5.2,-1.3,64,26,18,29.88,29.67,19,2,19,0.00
2014-3-14,54.5,34.5,16.9,11.6,7.6,1.6,62,35,18,29.79,29.70,17,1,17,0.00
2014-3-15,43.7,30.1,16.3,13.8,6.3,0.5,56,37,24,30.00,29.67,19,2,19,0.00
2014-3-16,52.2,35.0,15.1,12.9,5.7,0.2,59,31,19,30.00,29.79,19,3,19,0.00
2014-3-17,57.6,39.6,22.1,15.9,8.8,-0.2,46,30,17,29.79,29.29,23,3,23,0.00
2014-3-18,30.4,23.2,12.7,12.1,3.3,-2.5,72,43,33,29.79,29.32,21,2,23,0.00
2014-3-19,21.9,14.1,8.6,6.1,2.2,-0.5,70,60,38,29.79,29.76,12,1,12,0.00
2014-3-20,57.2,42.5,31.1,12.6,4.4,-3.7,28,20,17,29.76,29.67,22,4,24,0.00
2014-3-21,39.7,29.3,19.9,14.7,6.6,-3.0,70,39,22,29.82,29.70,11,1,13,0.00
2014-3-22,27.0,21.0,11.3,18.0,12.2,6.2,87,69,51,29.91,29.73,8,1,8,0.00
2014-3-23,52.9,29.2,9.3,17.0,5.9,-0.4,84,46,18,29.91,29.73,22,2,22,0.00
2014-3-24,47.8,27.0,16.5,14.5,8.1,1.6,76,48,19,29.91,29.79,13,2,24,0.00
2014-3-25,56.1,34.5,14.5,16.1,10.7,6.0,86,44,17,29.91,29.61,16,1,16,0.00
2014-3-26,56.8,38.1,24.4,28.0,12.1,5.6,87,38,17,29.61,29.26,21,2,21,0.00
2014-3-27,48.2,34.4,27.9,18.6,10.3,2.2,63,38,21,29.61,29.32,21,3,21,0.00
2014-3-28,43.0,30.8,21.9,11.8,5.2,1.5,47,34,23,29.88,29.61,21,3,21,0.00
2014-3-29,57.0,39.9,28.2,13.0,6.8,-1.1,45,26,17,29.88,29.73,22,2,22,0.00
2014-3-30,64.8,40.3,25.3,28.5,12.2,6.3,85,36,15,29.73,29.38,21,2,21,0.00
2014-3-31,45.5,33.0,27.0,15.6,7.4,0.0,55,35,21,29.73,29.35,25,3,25,0.00
2014-4-1,48.6,34.2,22.3,17.6,11.7,6.3,66,42,19,29.70,29.49,11,0,11,0.00
2014-4-2,43.3,29.5,17.4,25.2,17.3,10.4,90,64,30,29.55,29.46,0,0,0,0.00
2014-4-3,43.7,27.0,12.4,22.8,16.2,7.8,86,66,31,29.79,29.52,0,0,0,0.00
2014-4-4,49.5,25.7,9.5,24.8,11.2,5.2,86,60,22,29.79,29.67,10,0,10,0.04
2014-4-5,50.2,29.6,15.1,21.9,15.5,9.5,83,59,24,29.70,0.00,6,0,6,0.08
2014-4-6,48.6,32.1,18.5,21.6,12.6,4.3,88,50,20,29.73,0.00,15,1,15,0.04
2014-4-7,48.2,33.7,25.5,23.3,13.3,4.9,79,45,22,30.00,29.73,17,1,17,0.04
2014-4-8,59.0,42.5,26.8,19.6,15.3,11.2,74,36,19,30.08,29.91,19,2,19,0.00
2014-4-9,67.3,50.6,36.9,20.8,13.9,9.4,41,24,15,30.20,29.79,17,3,17,0.00
2014-4-10,62.6,42.6,27.5,23.5,17.0,10.1,73,39,18,31.35,29.88,17,2,17,0.00
2014-4-11,70.9,45.3,27.7,20.9,16.4,9.6,69,37,14,31.97,25.45,16,1,16,0.00
2014-4-12,50.0,44.4,35.1,18.5,12.6,9.0,45,29,21,31.00,26.10,17,2,17,0.00
2014-4-13,27.5,19.7,10.4,21.5,9.0,1.0,78,63,50,31.97,25.80,0,0,0,0.04
2014-4-14,39.9,21.5,0.3,12.4,2.9,-8.6,65,47,26,31.00,28.40,10,0,10,0.08
2014-4-15,54.9,39.4,23.5,15.9,6.9,1.7,48,27,18,31.00,29.08,25,3,25,0.12
2014-4-16,45.9,36.3,27.0,22.4,11.1,2.9,76,38,20,31.00,31.00,25,2,25,0.00
2014-4-17,60.6,36.8,19.6,21.0,15.3,7.8,88,50,17,31.00,31.00,18,1,18,0.00
2014-4-18,70.5,49.8,29.5,25.0,19.0,11.9,65,33,15,31.00,31.00,15,2,15,0.00
2014-4-19,59.7,44.6,35.1,38.0,26.6,15.3,98,54,26,31.00,31.00,10,1,13,0.35
2014-4-20,64.2,43.3,31.6,47.7,31.8,20.8,98,73,21,31.00,31.00,11,0,11,0.04
2014-4-21,58.1,41.4,29.7,36.4,29.6,21.1,98,70,27,31.00,31.00,12,1,12,0.00
2014-4-22,69.3,47.6,31.8,36.5,26.5,19.1,85,50,18,31.00,31.00,11,0,11,0.00
2014-4-23,61.9,44.0,31.5,27.4,19.5,5.9,79,42,19,31.00,31.00,17,3,17,0.00
2014-4-24,61.0,40.6,28.0,14.9,7.7,1.2,40,26,16,31.00,31.00,23,2,23,0.00
2014-4-25,64.4,44.8,27.0,24.7,16.1,9.6,59,35,18,31.00,31.00,11,1,11,0.00
2014-4-26,67.3,46.9,29.5,25.4,17.0,10.5,61,34,15,31.00,31.00,20,2,20,0.00
2014-4-27,41.0,35.4,31.1,15.7,11.9,8.7,45,38,32,31.00,31.00,24,5,24,0.00
2014-4-28,36.3,30.4,27.3,11.0,6.1,0.9,42,35,24,31.00,31.00,17,4,17,0.00
2014-4-29,45.1,33.4,24.6,21.9,8.9,5.2,77,37,23,31.00,31.00,17,2,17,0.00
2014-4-30,42.6,31.4,19.0,21.3,10.8,3.7,82,45,26,31.00,31.00,10,1,10,0.00
2014-5-1,52.7,37.5,19.4,10.6,7.2,4.0,58,31,18,31.00,31.00,12,1,12,0.00
2014-5-2,67.5,47.1,27.1,21.1,15.5,7.9,57,31,17,31.00,31.00,16,2,16,0.00
2014-5-3,70.7,53.3,36.3,23.7,16.4,11.2,43,24,15,31.00,31.00,16,1,16,0.00
2014-5-4,75.6,57.6,41.7,25.7,17.4,9.6,40,22,14,31.00,31.00,15,2,15,0.00
2014-5-5,69.8,50.9,35.6,28.9,15.0,8.0,39,25,14,31.00,31.00,13,1,13,0.00
2014-5-6,67.8,49.7,35.6,24.5,16.6,9.0,50,29,15,31.00,31.00,15,1,15,0.00
2014-5-7,56.7,41.6,30.9,39.9,29.4,15.7,94,64,36,31.00,31.00,0,0,0,0.04
2014-5-8,48.6,36.2,26.1,33.1,27.0,15.0,98,73,30,31.00,31.00,0,0,0,0.12
2014-5-9,55.9,39.6,28.9,33.9,23.5,13.5,98,59,25,31.00,31.00,16,1,16,0.08
2014-5-10,55.9,42.9,31.1,37.9,27.1,15.2,95,59,27,31.00,31.00,16,1,16,0.00
2014-5-11,38.8,30.2,23.9,38.3,25.5,17.8,98,83,58,31.00,31.00,0,0,0,0.31
2014-5-12,36.7,25.4,16.7,21.0,16.2,10.3,89,70,40,31.00,0.00,0,0,0,0.00
2014-5-13,44.6,29.8,14.7,23.7,15.3,9.6,87,60,28,31.00,0.00,0,0,0,0.00
2014-5-14,51.4,36.1,18.5,25.8,18.4,12.4,91,54,26,31.00,0.00,11,1,11,0.00
2014-5-15,52.9,39.3,26.2,31.4,24.8,20.1,95,61,30,31.00,0.00,0,0,0,3.11
2014-5-16,60.6,44.3,33.6,37.4,27.9,15.8,94,57,24,31.00,31.00,0,0,0,0.24
2014-5-17,62.8,46.0,32.9,46.8,35.3,24.0,98,72,25,31.00,31.00,0,0,0,0.04
2014-5-18,75.7,53.8,35.4,40.3,25.4,16.2,98,42,14,31.00,31.00,0,0,0,0.00
2014-5-19,74.5,53.0,34.2,32.5,22.7,15.3,71,35,14,31.00,31.00,0,0,0,0.00
2014-5-20,65.5,50.9,37.4,39.4,33.6,29.7,85,55,30,31.00,31.00,0,0,0,0.00
2014-5-21,60.1,47.6,36.1,45.7,39.2,33.6,98,75,39,31.00,31.00,0,0,0,0.20
2014-5-22,66.0,48.2,36.1,49.9,37.8,26.9,98,71,30,31.00,31.00,0,0,0,0.00
2014-5-23,64.6,49.6,36.9,50.1,36.7,27.5,98,66,26,31.00,31.00,0,0,0,0.00
2014-5-24,61.2,41.2,0.0,48.5,38.2,29.5,97,56,35,31.00,31.00,0,0,0,0.55
2014-5-25,56.3,35.8,0.0,49.5,37.4,28.8,98,70,45,31.71,25.27,0,0,0,0.24
2014-5-26,65.1,45.4,32.7,51.4,39.0,27.2,98,83,33,31.30,25.27,10,0,10,0.31
2014-5-27,73.4,54.1,38.5,47.5,35.2,22.9,98,60,16,31.00,25.27,5,0,5,0.31
2014-5-28,79.2,58.3,39.9,40.4,31.6,18.4,94,48,14,31.74,0.00,9,0,9,0.00
2014-5-29,79.7,57.9,44.2,50.0,35.8,24.1,75,49,15,26.01,25.27,13,0,13,0.08
2014-5-30,62.8,53.2,46.6,52.2,44.9,37.2,98,76,45,25.27,25.27,8,0,8,0.39
2014-5-31,74.5,54.3,39.4,48.3,38.3,22.9,98,64,16,25.27,25.27,12,1,12,0.43
2014-6-1,74.5,57.8,41.7,46.7,28.9,15.7,98,41,15,25.27,25.27,16,2,16,0.00
2014-6-2,75.7,55.8,36.7,45.3,34.9,22.9,98,54,15,25.27,25.27,12,1,12,0.00
2014-6-3,81.3,60.6,41.7,40.5,26.9,15.7,73,34,14,25.27,25.27,19,2,19,0.00
2014-6-4,75.9,56.0,36.7,37.5,28.1,18.6,71,38,17,25.27,25.27,11,1,15,0.00
2014-6-5,69.1,52.6,38.1,44.5,36.8,32.1,95,60,27,25.27,25.27,11,0,11,0.00
2014-6-6,72.7,55.9,41.4,44.6,34.2,21.3,86,50,20,25.27,25.27,15,1,15,0.00
2014-6-7,61.5,45.0,0.0,46.8,42.4,38.0,98,68,44,25.27,25.27,9,1,9,0.00
2014-6-8,60.6,44.8,38.7,52.0,40.7,38.1,98,88,45,25.27,25.27,0,0,0,0.24
2014-6-9,63.0,44.7,29.8,42.8,30.2,19.8,98,66,25,25.27,25.27,0,0,0,0.00
2014-6-10,75.9,62.7,36.9,33.2,26.3,19.6,86,28,15,29.97,25.27,15,2,15,0.00
2014-6-11,75.4,58.1,44.4,48.1,33.9,22.0,94,49,16,30.06,29.88,16,0,19,0.04
2014-6-12,67.5,54.0,43.9,49.5,43.8,36.9,98,72,36,30.08,30.00,4,0,4,0.00
2014-6-13,44.2,41.4,39.6,43.5,40.9,39.0,98,98,98,30.03,29.94,0,0,0,0.00
2014-6-14,70.2,61.6,38.8,37.9,28.3,19.4,52,29,17,29.85,29.73,0,0,0,0.00
2014-6-15,70.2,51.2,31.1,33.2,23.8,18.0,87,40,17,29.88,29.82,0,0,0,0.00
2014-6-16,77.9,57.2,36.7,27.2,22.1,15.2,57,29,14,29.85,29.76,0,0,0,0.00
2014-6-17,78.3,58.5,39.4,30.5,22.0,13.7,49,27,15,29.85,29.76,0,0,0,0.00
2014-6-18,69.3,51.7,38.5,47.2,30.6,20.4,98,51,20,29.97,29.82,0,0,0,0.28
2014-6-19,74.5,55.2,34.2,48.6,32.5,22.9,98,53,16,30.11,29.97,0,0,0,0.00
2014-6-20,77.2,56.9,36.3,36.4,30.2,20.5,90,45,15,30.11,30.03,0,0,0,0.00
2014-6-21,75.9,58.3,42.8,49.5,34.6,26.4,77,46,18,30.03,29.94,0,0,0,0.00
2014-6-22,74.1,54.4,41.9,46.4,36.1,28.3,98,55,21,30.08,30.00,0,0,0,0.00
2014-6-23,71.6,53.7,37.0,53.3,43.1,36.5,98,74,32,30.11,30.03,0,0,0,0.04
2014-6-24,70.5,56.0,41.7,55.9,45.0,37.0,98,72,33,30.11,30.06,0,0,0,0.08
2014-6-25,78.4,59.6,44.6,51.5,38.5,24.4,98,56,18,30.08,29.94,0,0,0,0.08
2014-6-26,84.0,61.7,44.8,42.8,30.2,21.9,82,37,14,30.03,29.79,0,0,0,0.00
2014-6-27,72.5,56.2,43.9,46.5,30.4,21.6,68,39,19,29.88,29.76,0,0,0,0.00
2014-6-28,75.0,57.2,42.8,42.3,27.4,20.0,85,36,16,30.00,29.85,0,0,0,0.00
2014-6-29,86.4,62.6,39.4,32.6,26.2,20.8,62,30,13,30.00,29.97,0,0,0,0.00
2014-6-30,83.8,62.6,46.0,34.7,28.8,23.9,52,31,14,30.11,29.97,0,0,0,0.00
2014-7-1,67.5,53.5,40.1,36.8,31.2,22.0,73,44,26,30.20,30.11,0,0,0,0.00
2014-7-2,74.1,58.5,47.5,40.5,36.2,32.1,76,46,24,30.20,30.11,0,0,0,0.00
2014-7-3,81.0,61.0,41.7,42.3,35.4,26.9,92,49,14,30.14,30.08,0,0,0,0.00
2014-7-4,84.6,66.4,52.0,51.8,37.0,27.7,76,38,16,30.20,30.14,0,0,0,0.04
2014-7-5,82.4,60.5,45.3,44.8,34.7,26.0,82,45,16,30.20,30.14,0,0,0,0.00
2014-7-6,83.7,59.7,46.4,52.1,36.6,26.9,77,46,14,30.20,30.11,0,0,0,0.04
2014-7-7,90.5,67.8,46.9,53.0,35.5,25.6,83,38,12,30.17,30.03,0,0,0,0.00
2014-7-8,68.5,58.0,50.0,52.0,47.7,41.8,97,71,43,30.20,30.11,0,0,0,0.00
2014-7-9,85.3,63.2,45.5,50.4,41.7,28.0,98,54,14,30.14,30.03,0,0,0,0.04
2014-7-10,86.4,63.8,49.3,45.2,37.7,28.7,80,43,16,30.08,30.00,0,0,0,0.00
2014-7-11,81.9,62.0,50.7,58.7,47.0,32.8,94,63,20,30.17,30.08,0,0,0,0.12
2014-7-12,73.8,60.0,49.3,54.4,47.7,33.7,98,68,26,30.26,30.11,0,0,0,0.00
2014-7-13,74.3,52.5,0.0,58.3,47.6,40.8,98,78,33,30.26,30.20,0,0,0,0.04
2014-7-14,49.6,47.8,46.0,49.1,47.3,45.5,98,98,98,30.23,30.20,0,0,0,0.00
2014-7-15,78.1,60.7,45.0,57.3,45.6,32.6,98,63,21,30.14,30.03,0,0,0,0.04
2014-7-16,71.1,55.4,43.5,56.1,45.7,36.1,98,75,33,30.06,30.00,0,0,0,0.28
2014-7-17,66.9,53.6,41.5,53.5,43.1,37.1,98,73,35,30.06,30.03,0,0,0,0.00
2014-7-18,81.3,59.5,42.8,50.9,38.9,29.4,98,56,17,30.06,30.03,0,0,0,0.00
2014-7-19,88.2,65.0,47.7,42.2,33.2,24.3,72,37,13,30.08,30.03,0,0,0,0.00
2014-7-20,86.4,63.2,47.3,55.4,36.3,26.2,80,43,13,30.14,30.06,0,0,0,0.04
2014-7-21,87.1,64.9,50.7,48.7,37.4,27.0,70,42,13,30.20,30.08,0,0,0,0.00
2014-7-22,84.2,64.4,47.8,42.0,35.9,30.9,68,39,19,30.29,30.17,0,0,0,0.00
2014-7-23,81.0,62.1,48.4,58.0,40.0,31.2,86,46,20,30.32,30.17,0,0,0,0.04
2014-7-24,87.8,71.0,57.0,40.6,35.7,31.1,48,29,16,30.17,30.06,0,0,0,0.00
2014-7-25,77.9,63.2,52.2,59.3,42.5,30.7,88,51,21,30.11,30.06,0,0,0,0.20
2014-7-26,81.0,64.9,51.8,53.3,40.6,32.3,77,43,20,30.20,30.08,0,0,0,0.04
2014-7-27,76.1,58.7,45.7,51.9,45.8,38.1,96,66,32,30.29,30.17,0,0,0,0.00
2014-7-28,77.2,60.2,46.8,60.7,45.8,34.8,98,65,23,30.26,30.17,0,0,0,0.00
2014-7-29,72.3,56.7,48.4,60.0,49.7,40.7,98,80,34,30.23,30.11,0,0,0,0.43
2014-7-30,54.3,51.2,48.0,51.6,48.4,44.2,98,90,70,30.23,30.14,0,0,0,1.14
2014-7-31,63.5,51.4,44.2,52.3,42.8,30.7,98,77,35,30.20,30.17,0,0,0,0.12
2014-8-1,70.5,53.8,42.4,54.1,38.9,26.7,98,65,25,30.20,30.17,0,0,0,0.12
2014-8-2,75.9,55.0,37.8,49.0,33.0,22.0,96,54,15,30.20,30.17,0,0,0,0.00
2014-8-3,80.8,59.6,42.8,51.3,36.0,24.7,96,51,15,30.20,30.11,0,0,0,0.00
2014-8-4,78.6,58.9,47.1,43.2,36.7,27.4,74,47,18,30.14,30.11,0,0,0,0.00
2014-8-5,71.6,57.8,47.5,51.3,40.6,29.6,94,56,23,30.14,30.08,0,0,0,0.08
2014-8-6,83.7,61.5,45.1,47.6,33.8,24.3,98,43,14,30.14,30.08,0,0,0,0.08
2014-8-7,71.4,56.3,45.9,49.5,39.9,29.8,85,58,23,30.14,30.06,0,0,0,0.08
2014-8-8,76.8,56.0,41.5,47.5,37.7,22.5,97,59,15,30.11,30.06,0,0,0,0.08
2014-8-9,78.6,56.2,42.6,47.4,34.4,22.9,82,51,15,30.20,30.08,0,0,0,0.00
2014-8-10,72.7,54.2,43.3,47.1,38.1,29.0,87,59,22,30.29,30.20,0,0,0,0.00
2014-8-11,77.4,56.3,41.0,51.1,33.3,19.6,98,53,16,30.29,30.23,0,0,0,0.00
2014-8-12,82.8,60.3,43.0,42.3,30.0,21.2,74,38,14,30.26,30.17,0,0,0,0.00
2014-8-13,83.7,64.4,49.5,47.8,34.3,24.3,74,38,14,30.17,30.08,0,0,0,0.04
2014-8-14,74.1,58.3,48.4,53.0,44.3,29.3,92,64,22,30.11,30.06,0,0,0,0.12
2014-8-15,82.8,58.3,46.6,49.9,39.5,22.9,98,61,14,30.14,30.08,0,0,0,0.12
2014-8-16,84.6,61.0,46.4,44.7,32.2,21.0,92,43,13,30.17,30.11,0,0,0,0.00
2014-8-17,85.5,61.3,45.0,32.3,27.3,21.6,51,31,13,30.17,30.08,0,0,0,0.00
2014-8-18,81.9,59.4,44.2,37.0,26.6,22.1,52,32,14,30.11,30.03,0,0,0,0.00
2014-8-19,79.7,56.1,44.8,48.3,34.8,21.2,84,52,15,30.06,29.94,0,0,0,0.16
2014-8-20,80.1,58.7,45.7,50.0,39.5,23.2,96,57,15,30.03,29.91,0,0,0,0.04
2014-8-21,75.6,56.2,43.9,47.0,36.2,22.3,86,54,15,30.14,30.00,0,0,0,0.16
2014-8-22,64.8,54.6,48.4,53.6,43.6,28.8,91,70,28,30.11,30.00,0,0,0,0.12
2014-8-23,71.6,52.8,40.6,48.8,33.4,17.6,95,55,20,30.00,29.91,0,0,0,0.04
2014-8-24,75.2,52.3,35.1,33.8,23.3,15.2,79,38,14,30.06,29.97,0,0,0,0.00
2014-8-25,73.2,52.0,38.7,46.3,34.8,24.3,87,58,19,30.14,30.06,0,0,0,0.12
2014-8-26,72.7,54.9,44.1,48.0,38.9,27.9,93,61,22,30.17,30.08,0,0,0,0.16
2014-8-27,67.3,53.5,41.5,49.9,37.7,23.5,91,60,24,30.11,30.06,0,0,0,0.12
2014-8-28,62.2,50.3,39.9,47.3,35.3,23.9,98,62,26,30.11,30.06,0,0,0,0.04
2014-8-29,71.8,52.4,41.5,42.0,32.4,20.0,95,53,16,30.11,30.06,0,0,0,0.00
2014-8-30,79.2,56.4,40.8,43.2,29.9,16.2,84,46,15,30.08,29.94,0,0,0,0.00
2014-8-31,55.9,45.2,43.5,40.5,32.5,26.4,87,62,33,29.97,29.88,0,0,0,0.08
2014-9-1,75.7,44.1,0.0,39.6,28.9,15.7,95,39,14,30.08,29.97,0,0,0,0.00
2014-9-2,84.4,58.9,36.1,30.6,24.8,15.9,74,33,13,30.08,29.97,0,0,0,0.00
2014-9-3,89.1,61.6,44.1,31.4,24.8,19.1,50,28,13,29.97,29.88,0,0,0,0.00
2014-9-4,68.4,53.4,42.1,39.7,28.5,19.4,70,40,23,30.14,29.91,0,0,0,0.00
2014-9-5,52.3,47.8,45.0,42.7,40.3,34.3,85,75,55,30.23,30.14,0,0,0,0.59
2014-9-6,66.0,49.5,38.8,51.1,37.9,24.5,97,70,24,30.23,30.14,0,0,0,0.04
2014-9-7,77.9,51.4,39.0,47.4,33.4,19.7,98,61,15,30.17,30.06,0,0,0,0.04
2014-9-8,73.6,55.2,43.5,38.2,30.8,20.0,65,44,16,30.06,29.97,0,0,0,0.00
2014-9-9,67.5,53.9,46.9,44.3,37.3,27.2,78,55,23,29.97,29.88,0,0,0,0.04
2014-9-10,71.1,51.3,39.4,42.2,31.0,14.4,85,53,15,30.06,29.94,0,0,0,0.08
2014-9-11,55.2,41.1,30.7,35.5,28.8,24.1,80,63,31,30.20,30.03,0,0,0,0.04
2014-9-12,37.4,31.8,25.5,26.9,20.8,12.5,84,65,42,30.23,30.08,0,0,0,0.16
2014-9-13,77.5,48.3,30.2,33.8,23.3,6.5,98,48,13,30.11,30.00,0,0,0,0.00
2014-9-14,79.0,54.2,37.4,32.3,23.8,16.7,76,36,14,30.08,30.03,0,0,0,0.00
2014-9-15,71.1,53.8,36.7,36.1,29.7,20.6,81,45,17,30.20,30.14,0,0,0,0.00
2014-9-16,79.2,54.6,40.5,35.3,27.0,18.0,65,39,14,30.14,30.08,0,0,0,0.00
2014-9-17,80.4,55.6,41.2,33.1,26.3,18.9,52,36,15,30.08,30.03,0,0,0,0.00
2014-9-18,84.4,62.1,40.8,34.2,25.6,17.7,60,29,13,30.06,29.97,0,0,0,0.00
2014-9-19,76.6,55.0,47.8,31.5,24.5,15.2,53,32,15,30.08,29.97,0,0,0,0.00
2014-9-20,74.8,56.0,42.8,39.0,31.0,24.5,71,43,18,30.23,30.08,0,0,0,0.00
2014-9-21,66.9,53.0,43.3,42.5,33.4,26.8,84,50,24,30.23,30.17,0,0,0,0.00
2014-9-22,74.7,55.0,43.5,45.3,32.2,17.9,88,49,16,30.17,30.06,0,0,0,0.00
2014-9-23,72.3,55.9,43.9,30.6,25.6,19.0,53,34,16,30.14,30.06,0,0,0,0.00
2014-9-24,78.6,54.3,39.7,35.3,25.9,18.2,65,39,15,30.20,30.14,0,0,0,0.00
2014-9-25,83.1,56.2,40.5,34.4,25.7,17.7,58,35,14,30.17,30.08,0,0,0,0.00
2014-9-26,80.8,57.4,43.2,32.5,25.9,20.0,53,33,14,30.08,30.03,0,0,0,0.00
2014-9-27,78.8,56.1,42.8,32.5,23.4,15.1,52,32,15,30.03,29.94,0,0,0,0.00
2014-9-28,62.6,49.2,37.6,39.5,29.1,18.9,81,47,28,30.00,29.97,0,0,0,0.00
2014-9-29,56.3,45.4,38.7,41.9,32.8,17.4,88,63,36,29.97,29.76,0,0,0,0.35
2014-9-30,56.5,45.6,37.8,21.1,14.3,9.6,49,29,18,29.85,29.76,0,0,0,0.31
2014-10-1,59.4,42.3,33.8,32.3,21.0,10.9,77,46,17,29.94,29.79,0,0,0,0.04
2014-10-2,55.4,41.0,29.1,24.5,9.5,4.4,68,29,18,30.08,29.94,0,0,0,0.00
2014-10-3,63.0,41.6,24.4,23.1,12.6,1.9,80,37,16,30.14,30.08,0,0,0,0.00
2014-10-4,66.7,52.3,43.3,17.2,10.2,4.9,20,18,15,30.08,30.00,0,0,0,0.00
2014-10-5,66.7,50.6,40.8,17.5,12.0,6.3,31,21,15,30.00,29.97,0,0,0,0.00
2014-10-6,67.5,55.2,45.1,18.0,14.6,10.8,29,20,15,29.97,29.91,0,0,0,0.00
2014-10-7,74.5,54.4,37.9,25.2,14.7,6.3,41,22,14,30.06,29.97,0,0,0,0.00
2014-10-8,72.1,48.8,36.3,30.3,18.4,13.0,45,32,15,30.06,29.97,0,0,0,0.00
2014-10-9,53.1,43.6,36.9,34.5,26.3,19.4,79,52,28,30.06,30.00,0,0,0,0.59
2014-10-10,49.3,41.9,33.6,37.5,30.1,22.3,87,65,37,30.08,30.03,0,0,0,0.04
2014-10-11,66.9,45.2,33.6,43.2,27.8,16.4,98,60,18,30.03,29.82,0,0,0,0.00
2014-10-12,51.1,38.9,28.8,29.2,21.9,11.1,87,54,26,29.97,29.67,0,0,0,0.04
2014-10-13,53.1,35.0,23.5,28.8,16.3,4.4,95,55,18,30.08,29.97,0,0,0,0.04
2014-10-14,71.1,42.8,27.7,21.9,15.8,8.7,57,37,14,30.08,30.03,0,0,0,0.00
2014-10-15,78.1,50.8,31.6,26.6,14.1,6.9,41,25,13,30.03,29.91,0,0,0,0.00
2014-10-16,70.0,50.3,33.6,22.0,15.3,6.4,57,27,14,30.03,29.88,0,0,0,0.00
2014-10-17,61.2,39.4,27.9,29.8,19.4,13.4,80,50,19,30.08,30.00,0,0,0,0.00
2014-10-18,68.7,43.1,28.8,27.0,18.9,10.8,83,45,15,30.08,30.00,0,0,0,0.00
2014-10-19,70.0,45.2,33.3,26.0,17.5,11.0,53,36,14,30.08,30.00,0,0,0,0.00
2014-10-20,71.4,46.5,32.5,24.2,19.4,14.7,56,37,15,30.08,30.00,0,0,0,0.00
2014-10-21,68.2,48.3,37.2,36.8,22.1,16.1,83,40,15,30.00,29.91,0,0,0,0.04
2014-10-22,65.5,45.1,34.0,37.1,22.7,13.4,98,47,15,30.06,29.91,0,0,0,0.00
2014-10-23,71.4,50.0,36.3,19.4,15.0,11.2,44,26,14,30.08,30.03,0,0,0,0.00
2014-10-24,77.2,50.3,36.5,25.7,13.6,3.9,33,24,13,30.17,30.08,0,0,0,0.00
2014-10-25,74.5,48.5,33.8,20.6,11.0,1.1,31,23,13,30.14,29.97,0,0,0,0.00
2014-10-26,72.5,50.1,37.9,20.2,12.8,2.5,39,23,14,29.97,29.76,0,0,0,0.00
2014-10-27,46.0,35.2,26.4,19.5,6.5,-4.7,52,30,20,29.94,29.73,0,0,0,0.00
2014-10-28,58.6,37.1,24.1,12.8,2.9,-5.5,33,24,17,30.06,29.94,0,0,0,0.00
2014-10-29,61.2,45.5,28.0,15.0,6.5,-2.1,31,20,16,30.08,30.00,0,0,0,0.00
2014-10-30,58.1,38.0,25.9,16.3,9.3,1.1,52,32,17,30.23,30.08,0,0,0,0.00
2014-10-31,61.0,37.0,23.9,18.6,11.5,5.6,60,38,16,30.20,29.97,0,0,0,0.00
2014-11-1,67.6,44.2,30.9,21.3,13.3,5.1,42,30,15,29.97,29.79,0,0,0,0.00
2014-11-2,63.0,40.4,31.1,17.9,12.9,9.0,53,34,16,29.79,29.73,0,0,0,0.00
2014-11-3,40.5,31.1,22.5,23.2,15.3,3.6,80,54,26,30.03,29.73,0,0,0,0.00
2014-11-4,59.9,34.2,18.1,14.9,4.8,-3.2,52,31,17,30.08,30.00,0,0,0,0.00
2014-11-5,67.5,41.0,27.3,17.5,7.8,-0.1,43,26,15,30.20,30.00,0,0,0,0.00
2014-11-6,68.9,45.4,28.2,19.0,8.2,-2.8,33,23,15,30.23,30.00,0,0,0,0.00
2014-11-7,63.9,46.9,32.5,25.5,12.3,3.6,74,28,16,30.17,29.97,0,0,0,0.00
2014-11-8,60.1,41.5,24.1,34.4,16.1,5.8,98,47,17,30.17,29.88,0,0,0,0.00
2014-11-9,67.8,49.8,38.3,18.4,9.0,2.2,26,19,15,29.91,29.46,0,0,0,0.00
2014-11-10,53.4,30.6,5.2,16.0,4.2,-7.5,56,37,18,31.47,29.29,0,0,0,0.00
2014-11-11,11.7,4.0,-3.6,-1.7,-8.6,-15.7,55,55,55,31.00,31.00,0,0,0,0.00
2014-11-12,1.9,-6.1,-17.3,-10.5,-18.0,-28.6,55,55,55,31.00,31.00,0,0,0,0.00
2014-11-13,29.3,7.0,-17.7,20.7,-7.8,-28.9,79,51,24,31.00,31.00,0,0,0,0.00
2014-11-14,47.5,32.3,23.5,13.7,7.7,1.0,57,37,19,31.00,30.76,0,0,0,0.00
2014-11-15,32.7,14.6,-2.7,9.4,-6.0,-22.2,56,39,30,31.00,31.00,0,0,0,0.00
2014-11-16,36.7,10.9,-3.1,-1.5,-15.4,-22.5,49,30,19,31.00,31.00,0,0,0,0.00
2014-11-17,32.9,18.6,11.7,-5.0,-11.9,-15.9,29,25,20,31.00,31.00,0,0,0,0.00
2014-11-18,33.8,27.6,15.3,-1.2,-6.3,-11.5,35,22,20,31.00,31.00,0,0,0,0.04
2014-11-19,51.6,36.1,28.4,10.6,-1.3,-7.4,23,20,18,31.00,31.00,0,0,0,0.00
2014-11-20,56.1,35.4,25.3,12.2,0.5,-9.2,35,23,18,31.00,31.00,0,0,0,0.00
2014-11-21,49.6,32.7,24.4,8.6,2.1,-3.0,35,27,19,31.00,31.00,0,0,0,0.00
2014-11-22,51.8,37.8,21.9,11.1,4.5,-3.7,37,25,19,31.00,31.00,0,0,0,0.00
2014-11-23,34.9,24.0,16.2,11.5,0.3,-8.4,45,35,30,31.00,31.00,0,0,0,0.00
2014-11-24,36.3,20.3,9.7,5.6,-5.9,-10.3,47,31,22,31.00,31.00,0,0,0,0.00
2014-11-25,33.8,25.6,17.8,13.8,-1.7,-11.1,52,30,25,31.00,31.00,0,0,0,0.00
2014-11-26,45.7,37.5,23.0,17.9,9.8,3.3,64,33,21,31.00,0.00,0,0,0,0.00
2014-11-27,55.9,44.7,35.8,12.4,6.0,0.6,22,20,17,31.00,31.00,0,0,0,0.00
2014-11-28,58.8,47.9,33.6,13.4,7.8,-0.6,30,19,17,31.00,0.00,30,3,30,0.00
2014-11-29,58.6,44.5,28.8,13.9,5.0,-7.3,21,19,17,29.85,29.79,24,4,29,0.00
2014-11-30,56.3,33.0,11.7,11.7,4.0,-2.2,63,34,17,30.17,29.79,22,2,22,0.00
2014-12-1,47.5,28.8,10.0,18.6,2.4,-2.5,80,36,19,30.17,30.06,26,2,26,0.00
2014-12-2,54.5,38.4,23.7,10.9,1.4,-9.5,27,21,18,30.08,29.97,26,4,26,0.00
2014-12-3,50.4,35.4,24.1,10.9,4.0,-7.5,33,27,19,30.08,29.94,23,2,23,0.00
2014-12-4,49.5,40.2,33.3,14.3,9.4,3.1,43,28,19,30.06,29.94,9,1,25,0.00
2014-12-5,55.0,34.7,23.7,13.0,7.6,1.0,46,33,18,30.29,30.03,16,1,16,0.00
2014-12-6,50.4,33.8,23.4,11.5,6.9,-1.1,52,34,19,30.29,30.17,17,1,17,0.00
2014-12-7,50.5,37.1,23.7,9.4,4.4,-1.5,36,25,19,30.26,30.17,18,3,18,0.00
2014-12-8,57.7,33.9,22.3,13.0,-0.7,-10.8,34,23,17,30.26,30.20,11,0,11,0.00
2014-12-9,59.9,35.0,22.6,14.9,-2.1,-10.5,23,20,17,30.23,30.14,13,1,13,0.00
2014-12-10,60.4,33.7,24.1,15.2,-1.4,-8.6,27,22,17,30.17,30.08,9,0,9,0.00
2014-12-11,62.8,35.1,23.7,15.8,1.2,-7.1,38,24,16,30.11,30.06,11,1,11,0.00
2014-12-12,63.0,36.1,23.7,16.0,-0.0,-7.8,27,21,16,30.11,30.03,6,0,8,0.00
2014-12-13,54.3,36.1,23.4,11.6,2.2,-4.5,36,24,18,30.03,29.82,5,0,7,0.00
2014-12-14,34.9,27.7,20.7,21.1,11.3,-0.1,70,50,34,29.85,29.76,8,0,8,0.00
2014-12-15,35.4,22.1,8.6,4.3,-3.4,-8.4,45,33,22,31.89,29.85,22,3,22,0.00
2014-12-16,48.6,24.9,8.6,14.8,5.3,-8.4,67,45,19,30.08,29.97,5,0,5,0.04
2014-12-17,41.7,26.0,17.1,12.8,9.2,1.7,73,51,21,30.00,29.91,7,0,11,0.00
2014-12-18,40.1,23.9,13.8,11.5,3.4,-3.3,78,45,21,30.03,29.94,10,1,11,0.00
2014-12-19,43.7,27.1,21.0,4.9,-3.2,-7.7,35,27,19,30.06,29.97,13,2,13,0.00
2014-12-20,45.1,33.0,27.1,5.9,2.0,-1.5,37,27,20,30.03,29.91,17,3,17,0.00
2014-12-21,42.3,33.1,28.4,24.3,9.1,-1.9,77,39,23,29.91,29.64,30,4,30,0.00
2014-12-22,32.0,21.6,7.7,21.5,8.3,-4.0,76,56,36,29.85,29.70,8,0,8,0.00
2014-12-23,36.0,15.9,7.7,1.8,-6.3,-12.1,58,37,20,30.06,29.85,11,1,14,0.00
2014-12-24,45.0,24.3,8.8,6.6,-0.6,-13.4,55,35,20,30.00,29.58,26,2,26,0.00
2014-12-25,34.7,21.6,10.9,13.8,5.9,-1.3,65,51,25,29.82,29.52,11,1,11,0.00
2014-12-26,17.8,6.1,-7.8,1.1,-10.9,-27.6,57,46,34,29.97,29.79,4,0,4,0.00
2014-12-27,32.7,8.3,-8.0,-1.2,-17.0,-27.8,40,30,20,30.03,29.91,17,1,17,0.00
2014-12-28,34.9,20.4,9.7,-1.0,-8.7,-14.5,43,27,20,29.91,29.82,25,4,25,0.00
2014-12-29,9.9,3.5,-6.9,-10.8,-16.4,-25.8,38,38,38,30.12,29.88,7,0,7,0.00
2014-12-30,0.7,-11.0,-20.7,-19.3,-29.6,-38.5,38,38,38,30.18,30.06,7,0,7,0.00
2014-12-31,29.5,2.9,-12.6,10.4,-19.0,-31.0,56,35,21,30.12,29.97,4,0,4,0.00
2015-1-1,32.9,11.5,-1.7,4.4,-10.5,-23.2,59,37,20,30.00,29.88,8,0,8,0.00
2015-1-2,45.5,17.1,4.5,21.5,-0.1,-8.5,66,49,20,30.00,29.80,5,0,6,0.00